Weather History for KGWR - November, 2012

Change the Weather History Date:

Thursday, November 1, 2012

  Actual Average (KP67) Record (KP67)
Temperature  
Mean Temperature 34 °F -  
Max Temperature 41 °F 40 °F 39 °F (1997)
Min Temperature 28 °F 24 °F 15 °F (1996)
Degree Days  
Heating Degree Days 30    
Moisture  
Dew Point 27 °F    
Average Humidity 79    
Maximum Humidity 93    
Minimum Humidity 65    
Precipitation  
Precipitation 0.00 in - - ()
Sea Level Pressure  
Sea Level Pressure 30.11 in    
Wind  
Wind Speed 13 mph (NNE)    
Max Wind Speed 17 mph    
Max Gust Speed 20 mph    
Visibility 10 miles    
Events      
Averages and records for this station are not official NWS values.
T = Trace of Precipitation, MM = Missing Value Source: NWS Daily Summary

Daily Weather History Graph

Daily Weather History Graph

Search for Another Location

Airport or City:

Trip Planner

Search our weather history database for the weather conditions in past years. The results will help you decide how hot, cold, wet, or windy it might be!

Date:

Astronomy

Nov. 01, 2012 Rise Set
Actual Time 8:12 AM CDT 6:15 PM CDT
Civil Twilight 7:40 AM CDT 6:46 PM CDT
Nautical Twilight 7:05 AM CDT 7:22 PM CDT
Astronomical Twilight 6:30 AM CDT 7:56 PM CDT
Moon 8:06 PM CDT (11/1) 10:53 AM CDT (11/1)
Length of Visible Light 11h 05m
Length of Day
10h 02m
Waning Gibbous, 93% of the Moon is Illuminated
Nov 1
Waning Gibbous
Nov 6
Last Quarter
Nov 13
New
Nov 20
First Quarter
Nov 28
Full

Hourly Weather History & Observations

Time (CDT) Temp. Windchill Dew Point Humidity Pressure Visibility Wind Dir Wind Speed Gust Speed Precip Events Conditions
12:15 AM 41.0 °F 33.1 °F 39.2 °F 93% 30.07 in 10.0 mi North 15.0 mph 19.6 mph 0.00 in   Overcast
12:35 AM 41.0 °F 33.5 °F 39.2 °F 93% 30.08 in 10.0 mi North 13.8 mph - 0.00 in   Overcast
1:15 AM 39.2 °F 31.2 °F 35.6 °F 87% 30.09 in 10.0 mi North 13.8 mph 19.6 mph 0.00 in   Overcast
1:35 AM 39.2 °F 31.2 °F 33.8 °F 81% 30.09 in 10.0 mi North 13.8 mph 19.6 mph 0.00 in   Overcast
1:55 AM 39.2 °F 30.5 °F 32.0 °F 75% 30.09 in 10.0 mi North 16.1 mph - 0.00 in   Overcast
2:15 AM 37.4 °F 29.3 °F 32.0 °F 81% 30.10 in 10.0 mi North 12.7 mph - 0.00 in   Overcast
2:35 AM 37.4 °F 29.3 °F 32.0 °F 81% 30.10 in 10.0 mi North 12.7 mph - 0.00 in   Overcast
2:55 AM 37.4 °F 28.2 °F 32.0 °F 81% 30.10 in 10.0 mi North 16.1 mph - 0.00 in   Overcast
3:15 AM 37.4 °F 29.3 °F 32.0 °F 81% 30.10 in 10.0 mi North 12.7 mph - 0.00 in   Overcast
3:35 AM 37.4 °F 28.5 °F 32.0 °F 81% 30.10 in 10.0 mi North 15.0 mph 18.4 mph 0.00 in   Overcast
3:55 AM 37.4 °F 28.9 °F 30.2 °F 75% 30.10 in 10.0 mi North 13.8 mph - 0.00 in   Overcast
4:15 AM 37.4 °F 30.3 °F 30.2 °F 75% 30.11 in 10.0 mi North 10.4 mph - 0.00 in   Overcast
4:35 AM 35.6 °F 26.6 °F 30.2 °F 81% 30.10 in 10.0 mi North 13.8 mph - 0.00 in   Overcast
5:15 AM 35.6 °F 26.2 °F 28.4 °F 75% 30.12 in 10.0 mi North 15.0 mph - 0.00 in   Overcast
5:35 AM 35.6 °F 26.2 °F 28.4 °F 75% 30.12 in 10.0 mi North 15.0 mph 19.6 mph 0.00 in   Overcast
5:55 AM 35.6 °F 26.6 °F 28.4 °F 75% 30.11 in 10.0 mi North 13.8 mph - 0.00 in   Overcast
6:35 AM 33.8 °F 25.3 °F 30.2 °F 87% 30.12 in 10.0 mi North 11.5 mph - 0.00 in   Overcast
6:55 AM 33.8 °F 26.4 °F 30.2 °F 87% 30.13 in 10.0 mi North 9.2 mph - 0.00 in   Overcast
7:15 AM 32.0 °F 22.1 °F 30.2 °F 93% 30.12 in 10.0 mi NNE 13.8 mph - 0.00 in   Overcast
7:55 AM 32.0 °F 23.0 °F 28.4 °F 87% 30.14 in 10.0 mi North 11.5 mph - 0.00 in   Mostly Cloudy
8:15 AM 32.0 °F 23.6 °F 28.4 °F 87% 30.13 in 10.0 mi NNE 10.4 mph - 0.00 in   Mostly Cloudy
8:35 AM 32.0 °F 23.0 °F 28.4 °F 87% 30.14 in 10.0 mi North 11.5 mph - 0.00 in   Partly Cloudy
8:55 AM 30.2 °F 21.3 °F 28.4 °F 93% 30.14 in 10.0 mi NNE 10.4 mph - 0.00 in   Partly Cloudy
9:15 AM 32.0 °F 23.6 °F 28.4 °F 87% 30.14 in 10.0 mi NNE 10.4 mph - 0.00 in   Mostly Cloudy
9:35 AM 32.0 °F 22.5 °F 28.4 °F 87% 30.15 in 10.0 mi North 12.7 mph - 0.00 in   Scattered Clouds
9:55 AM 32.0 °F 21.2 °F 26.6 °F 80% 30.15 in 10.0 mi North 16.1 mph - 0.00 in   Partly Cloudy
10:15 AM 32.0 °F 20.8 °F 26.6 °F 80% 30.15 in 10.0 mi North 17.3 mph - 0.00 in   Clear
10:35 AM 32.0 °F 22.1 °F 26.6 °F 80% 30.15 in 10.0 mi North 13.8 mph - 0.00 in   Partly Cloudy
10:55 AM 32.0 °F 22.5 °F 26.6 °F 80% 30.15 in 10.0 mi North 12.7 mph - 0.00 in   Partly Cloudy
11:15 AM 32.0 °F 22.1 °F 26.6 °F 80% 30.16 in 10.0 mi North 13.8 mph - 0.00 in   Scattered Clouds
11:35 AM 33.8 °F 24.3 °F 26.6 °F 75% 30.15 in 10.0 mi North 13.8 mph - 0.00 in   Mostly Cloudy
11:55 AM 32.0 °F 23.0 °F 26.6 °F 80% 30.15 in 10.0 mi North 11.5 mph - 0.00 in   Overcast
12:15 PM 32.0 °F 21.6 °F 26.6 °F 80% 30.14 in 10.0 mi NNE 15.0 mph - 0.00 in   Mostly Cloudy
12:35 PM 33.8 °F 24.8 °F 26.6 °F 75% 30.13 in 10.0 mi NNE 12.7 mph - 0.00 in   Scattered Clouds
12:55 PM 33.8 °F 23.9 °F 26.6 °F 75% 30.13 in 10.0 mi NNE 15.0 mph 19.6 mph 0.00 in   Scattered Clouds
1:15 PM 33.8 °F 24.8 °F 26.6 °F 75% 30.12 in 9.0 mi NNE 12.7 mph - 0.00 in   Partly Cloudy
1:35 PM 33.8 °F 25.3 °F 24.8 °F 70% 30.12 in 10.0 mi North 11.5 mph 17.3 mph 0.00 in   Clear
1:55 PM 33.8 °F 23.9 °F 26.6 °F 75% 30.11 in 10.0 mi North 15.0 mph - 0.00 in   Clear
2:15 PM 33.8 °F 24.3 °F 23.0 °F 65% 30.11 in 10.0 mi NNE 13.8 mph - 0.00 in   Clear
2:35 PM 33.8 °F 25.3 °F 24.8 °F 70% 30.10 in 10.0 mi North 11.5 mph - 0.00 in   Clear
2:55 PM 33.8 °F 24.8 °F 24.8 °F 70% 30.10 in 10.0 mi North 12.7 mph - 0.00 in   Clear
3:15 PM 33.8 °F 26.4 °F 23.0 °F 65% 30.10 in 10.0 mi North 9.2 mph - 0.00 in   Clear
3:35 PM 33.8 °F 24.8 °F 23.0 °F 65% 30.09 in 10.0 mi NNE 12.7 mph - 0.00 in   Clear
3:55 PM 33.8 °F 24.8 °F 23.0 °F 65% 30.09 in 10.0 mi North 12.7 mph - 0.00 in   Clear
4:15 PM 33.8 °F 25.3 °F 23.0 °F 65% 30.09 in 10.0 mi NNE 11.5 mph - 0.00 in   Clear
4:35 PM 33.8 °F 24.8 °F 23.0 °F 65% 30.09 in 10.0 mi North 12.7 mph - 0.00 in   Clear
4:55 PM 33.8 °F 24.8 °F 23.0 °F 65% 30.09 in 10.0 mi NNE 12.7 mph - 0.00 in   Clear
5:15 PM 33.8 °F 23.9 °F 23.0 °F 65% 30.08 in 10.0 mi NE 15.0 mph - 0.00 in   Clear
5:35 PM 32.0 °F 22.5 °F 23.0 °F 69% 30.08 in 7.0 mi NE 12.7 mph - 0.00 in   Clear
5:55 PM 32.0 °F 23.0 °F 23.0 °F 69% 30.09 in 10.0 mi NE 11.5 mph - 0.00 in   Clear
6:15 PM 30.2 °F 21.3 °F 23.0 °F 75% 30.08 in 10.0 mi NE 10.4 mph - 0.00 in   Clear
6:35 PM 30.2 °F 20.8 °F 23.0 °F 75% 30.08 in 10.0 mi NE 11.5 mph - 0.00 in   Clear
6:55 PM 30.2 °F 21.3 °F 23.0 °F 75% 30.10 in 10.0 mi NE 10.4 mph - 0.00 in   Clear
7:15 PM 28.4 °F 19.7 °F 23.0 °F 80% 30.09 in 10.0 mi NE 9.2 mph - 0.00 in   Clear
7:35 PM 30.2 °F 21.3 °F 23.0 °F 75% 30.09 in 10.0 mi NE 10.4 mph - 0.00 in   Clear
7:55 PM 30.2 °F 20.8 °F 24.8 °F 80% 30.10 in 10.0 mi NE 11.5 mph - 0.00 in   Scattered Clouds
8:15 PM 30.2 °F 21.3 °F 23.0 °F 75% 30.10 in 10.0 mi NE 10.4 mph - 0.00 in   Mostly Cloudy
8:55 PM 30.2 °F 21.9 °F 24.8 °F 80% 30.10 in 10.0 mi NE 9.2 mph - 0.00 in   Mostly Cloudy
9:15 PM 28.4 °F 21.2 °F 24.8 °F 86% 30.09 in 10.0 mi NE 6.9 mph - 0.00 in   Partly Cloudy
9:35 PM 28.4 °F 23.3 °F 24.8 °F 86% 30.10 in 10.0 mi NNE 4.6 mph - 0.00 in   Clear
9:55 PM 28.4 °F 23.3 °F 24.8 °F 86% 30.10 in 10.0 mi NNE 4.6 mph - 0.00 in   Clear
10:15 PM 28.4 °F 23.3 °F 26.6 °F 93% 30.10 in 10.0 mi NNE 4.6 mph - 0.00 in   Clear
10:35 PM 28.4 °F 22.2 °F 26.6 °F 93% 30.10 in 10.0 mi NNE 5.8 mph - 0.00 in   Clear
10:55 PM 28.4 °F 23.3 °F 26.6 °F 93% 30.10 in 10.0 mi NNE 4.6 mph - 0.00 in   Clear
11:15 PM 28.4 °F 21.2 °F 26.6 °F 93% 30.10 in 10.0 mi NNE 6.9 mph - 0.00 in   Clear
11:35 PM 28.4 °F 20.4 °F 26.6 °F 93% 30.09 in 10.0 mi NNE 8.1 mph - 0.00 in   Clear
11:55 PM 28.4 °F 20.4 °F 26.6 °F 93% 30.09 in 10.0 mi NE 8.1 mph - 0.00 in   Clear